Time,TemperatureF,DewpointF,PressureIn,WindDirection,WindDirectionDegrees,WindSpeedMPH,WindSpeedGustMPH,Humidity,HourlyPrecipIn,Conditions,Clouds,dailyrainin,SoftwareType,DateUTC
2013-05-28 00:01:00,60.3,50.0,30.31,SSE,158,6.0,8.0,69,0.00,,,0.00,meteohub,2013-05-28 04:01:00,
2013-05-28 00:06:00,60.3,50.0,30.31,SSE,158,6.0,9.0,69,0.00,,,0.00,meteohub,2013-05-28 04:06:00,
2013-05-28 00:11:00,60.3,50.0,30.31,SSE,158,5.0,9.0,69,0.00,,,0.00,meteohub,2013-05-28 04:11:00,
2013-05-28 00:16:00,60.3,50.4,30.31,ESE,112,6.0,9.0,70,0.00,,,0.00,meteohub,2013-05-28 04:16:00,
2013-05-28 00:21:00,60.3,50.4,30.31,ESE,112,6.0,9.0,70,0.00,,,0.00,meteohub,2013-05-28 04:21:00,
2013-05-28 00:26:00,60.3,50.4,30.31,SE,135,6.0,9.0,70,0.00,,,0.00,meteohub,2013-05-28 04:26:00,
2013-05-28 00:31:00,60.3,50.0,30.31,SSE,158,6.0,9.0,69,0.00,,,0.00,meteohub,2013-05-28 04:31:00,
2013-05-28 00:36:00,60.3,50.0,30.31,SE,135,9.0,9.0,69,0.00,,,0.00,meteohub,2013-05-28 04:36:00,
2013-05-28 00:41:00,60.1,49.8,30.28,SE,135,5.0,9.0,69,0.00,,,0.00,meteohub,2013-05-28 04:41:00,
2013-05-28 00:46:00,60.1,49.8,30.28,SSE,158,5.0,9.0,69,0.00,,,0.00,meteohub,2013-05-28 04:46:00,
2013-05-28 00:52:00,60.1,49.8,30.28,ESE,112,6.0,9.0,69,0.00,,,0.00,meteohub,2013-05-28 04:52:00,
2013-05-28 00:57:00,60.3,50.0,30.28,SSE,158,7.0,9.0,69,0.00,,,0.00,meteohub,2013-05-28 04:57:00,
2013-05-28 01:02:00,60.3,50.0,30.28,SSE,158,8.0,9.0,69,0.00,,,0.00,meteohub,2013-05-28 05:02:00,
2013-05-28 01:07:00,60.4,49.8,30.27,ESE,112,5.0,9.0,68,0.00,,,0.00,meteohub,2013-05-28 05:07:00,
2013-05-28 01:12:00,60.4,49.8,30.27,ESE,112,5.0,9.0,68,0.00,,,0.00,meteohub,2013-05-28 05:12:00,
2013-05-28 01:17:00,60.4,49.8,30.27,ESE,112,8.0,9.0,68,0.00,,,0.00,meteohub,2013-05-28 05:17:00,
2013-05-28 01:22:00,60.4,49.5,30.27,SSE,158,9.0,9.0,67,0.00,,,0.00,meteohub,2013-05-28 05:22:00,
2013-05-28 01:27:00,60.4,49.5,30.27,ENE,68,4.0,10.0,67,0.00,,,0.00,meteohub,2013-05-28 05:27:00,
2013-05-28 01:32:00,60.3,49.3,30.28,SSE,158,5.0,10.0,67,0.00,,,0.00,meteohub,2013-05-28 05:32:00,
2013-05-28 01:37:00,60.1,49.1,30.28,SSE,158,3.0,9.0,67,0.00,,,0.00,meteohub,2013-05-28 05:37:00,
2013-05-28 01:42:00,59.9,48.9,30.31,SSE,158,5.0,8.0,67,0.00,,,0.00,meteohub,2013-05-28 05:42:00,
2013-05-28 01:47:00,59.7,49.1,30.31,SE,135,4.0,7.0,68,0.00,,,0.00,meteohub,2013-05-28 05:47:00,
2013-05-28 01:52:00,59.7,49.5,30.31,ESE,112,6.0,7.0,69,0.00,,,0.00,meteohub,2013-05-28 05:52:00,
2013-05-28 01:57:00,59.7,49.5,30.28,SE,135,7.0,7.0,69,0.00,,,0.00,meteohub,2013-05-28 05:57:00,
2013-05-28 02:02:00,59.7,50.0,30.28,SE,135,5.0,8.0,70,0.00,,,0.00,meteohub,2013-05-28 06:02:00,
2013-05-28 02:07:00,59.5,49.8,30.28,SE,135,6.0,8.0,70,0.00,,,0.00,meteohub,2013-05-28 06:07:00,
2013-05-28 02:12:00,59.5,49.8,30.28,SSE,158,5.0,7.0,70,0.00,,,0.00,meteohub,2013-05-28 06:12:00,
2013-05-28 02:17:00,59.7,50.0,30.28,SSE,158,6.0,7.0,70,0.00,,,0.00,meteohub,2013-05-28 06:17:00,
2013-05-28 02:22:00,59.7,50.0,30.28,SSW,202,7.0,7.0,70,0.00,,,0.00,meteohub,2013-05-28 06:22:00,
2013-05-28 02:27:00,59.9,50.2,30.28,ESE,112,9.0,9.0,70,0.00,,,0.00,meteohub,2013-05-28 06:27:00,
2013-05-28 02:32:00,59.9,49.6,30.28,SSE,158,8.0,9.0,69,0.00,,,0.00,meteohub,2013-05-28 06:32:00,
2013-05-28 02:37:00,59.7,49.5,30.28,SSE,158,5.0,9.0,69,0.00,,,0.00,meteohub,2013-05-28 06:37:00,
2013-05-28 02:42:00,59.7,50.0,30.28,SSE,158,6.0,9.0,70,0.00,,,0.00,meteohub,2013-05-28 06:42:00,
2013-05-28 02:47:00,59.5,49.8,30.28,ESE,112,7.0,9.0,70,0.00,,,0.00,meteohub,2013-05-28 06:47:00,
2013-05-28 02:52:00,59.5,49.8,30.28,ESE,112,8.0,11.0,70,0.00,,,0.00,meteohub,2013-05-28 06:52:00,
2013-05-28 02:57:00,59.7,50.0,30.28,SSE,158,6.0,11.0,70,0.00,,,0.00,meteohub,2013-05-28 06:57:00,
2013-05-28 03:02:00,59.7,50.4,30.28,NE,45,7.0,10.0,71,0.00,,,0.00,meteohub,2013-05-28 07:02:00,
2013-05-28 03:07:00,59.5,49.8,30.28,SE,135,5.0,11.0,70,0.00,,,0.00,meteohub,2013-05-28 07:07:00,
2013-05-28 03:12:00,59.5,50.2,30.25,SE,135,6.0,11.0,71,0.00,,,0.00,meteohub,2013-05-28 07:12:00,
2013-05-28 03:17:00,59.5,50.2,30.25,ENE,68,8.0,11.0,71,0.00,,,0.00,meteohub,2013-05-28 07:17:00,
2013-05-28 03:22:00,59.7,50.4,30.25,ESE,112,9.0,11.0,71,0.00,,,0.00,meteohub,2013-05-28 07:22:00,
2013-05-28 03:27:00,59.7,50.4,30.28,SSE,158,6.0,11.0,71,0.00,,,0.00,meteohub,2013-05-28 07:27:00,
2013-05-28 03:32:00,59.5,50.2,30.28,SSE,158,6.0,9.0,71,0.00,,,0.00,meteohub,2013-05-28 07:32:00,
2013-05-28 03:37:00,59.4,50.0,30.28,ESE,112,3.0,9.0,71,0.00,,,0.00,meteohub,2013-05-28 07:37:00,
2013-05-28 03:42:00,59.4,50.0,30.25,ESE,112,5.0,8.0,71,0.00,,,0.00,meteohub,2013-05-28 07:42:00,
2013-05-28 03:47:00,59.4,50.0,30.25,ESE,112,2.0,8.0,71,0.00,,,0.00,meteohub,2013-05-28 07:47:00,
2013-05-28 03:52:00,59.4,50.0,30.25,SE,135,4.0,8.0,71,0.00,,,0.00,meteohub,2013-05-28 07:52:00,
2013-05-28 03:57:00,59.2,49.8,30.25,SE,135,6.0,8.0,71,0.00,,,0.00,meteohub,2013-05-28 07:57:00,
2013-05-28 04:02:00,59.2,50.2,30.25,SE,135,4.0,8.0,72,0.00,,,0.00,meteohub,2013-05-28 08:02:00,
2013-05-28 04:07:00,59.0,50.0,30.25,SSE,158,4.0,6.0,72,0.00,,,0.00,meteohub,2013-05-28 08:07:00,
2013-05-28 04:12:00,59.0,50.0,30.25,SE,135,5.0,6.0,72,0.00,,,0.00,meteohub,2013-05-28 08:12:00,
2013-05-28 04:17:00,58.8,49.8,30.25,SE,135,4.0,6.0,72,0.00,,,0.00,meteohub,2013-05-28 08:17:00,
2013-05-28 04:22:00,58.8,50.2,30.25,SE,135,6.0,8.0,73,0.00,,,0.00,meteohub,2013-05-28 08:22:00,
2013-05-28 04:27:00,58.8,50.2,30.25,SE,135,4.0,9.0,73,0.00,,,0.00,meteohub,2013-05-28 08:27:00,
2013-05-28 04:32:00,58.6,50.0,30.25,SSE,158,6.0,9.0,73,0.00,,,0.00,meteohub,2013-05-28 08:32:00,
2013-05-28 04:37:00,58.5,50.2,30.26,SE,135,5.0,9.0,74,0.00,,,0.00,meteohub,2013-05-28 08:37:00,
2013-05-28 04:42:00,58.3,50.0,30.26,SE,135,6.0,9.0,74,0.00,,,0.00,meteohub,2013-05-28 08:42:00,
2013-05-28 04:47:00,58.3,50.0,30.26,SE,135,7.0,11.0,74,0.00,,,0.00,meteohub,2013-05-28 08:47:00,
2013-05-28 04:52:00,58.1,49.8,30.26,ESE,112,9.0,11.0,74,0.00,,,0.00,meteohub,2013-05-28 08:52:00,
2013-05-28 04:57:00,57.9,50.0,30.26,SSE,158,6.0,9.0,75,0.00,,,0.00,meteohub,2013-05-28 08:57:00,
2013-05-28 05:02:00,57.9,50.0,30.26,ESE,112,7.0,9.0,75,0.00,,,0.00,meteohub,2013-05-28 09:02:00,
2013-05-28 05:07:00,57.7,50.2,30.26,SSE,158,6.0,9.0,76,0.00,,,0.00,meteohub,2013-05-28 09:07:00,
2013-05-28 05:12:00,57.4,50.2,30.27,SSW,202,7.0,7.0,77,0.00,,,0.00,meteohub,2013-05-28 09:12:00,
2013-05-28 05:17:00,57.2,50.4,30.27,SSE,158,7.0,9.0,78,0.00,,,0.00,meteohub,2013-05-28 09:17:00,
2013-05-28 05:22:00,56.8,50.4,30.27,SSE,158,5.0,9.0,79,0.00,,,0.00,meteohub,2013-05-28 09:22:00,
2013-05-28 05:27:00,56.8,50.7,30.27,SSE,158,3.0,9.0,80,0.00,,,0.00,meteohub,2013-05-28 09:27:00,
2013-05-28 05:32:00,56.5,50.4,30.27,SSE,158,0.0,8.0,80,0.00,,,0.00,meteohub,2013-05-28 09:32:00,
2013-05-28 05:37:00,56.1,49.6,30.27,NNW,338,0.0,8.0,79,0.00,,,0.00,meteohub,2013-05-28 09:37:00,
2013-05-28 05:42:00,55.8,49.3,30.28,WNW,292,3.0,5.0,79,0.00,,,0.00,meteohub,2013-05-28 09:42:00,
2013-05-28 05:47:00,55.6,49.1,30.28,North,0,4.0,4.0,79,0.00,,,0.00,meteohub,2013-05-28 09:47:00,
2013-05-28 05:52:00,55.9,50.9,30.28,NNE,22,5.0,5.0,83,0.00,,,0.00,meteohub,2013-05-28 09:52:00,
2013-05-28 05:57:00,56.1,51.4,30.31,NE,45,4.0,7.0,84,0.00,,,0.00,meteohub,2013-05-28 09:57:00,
2013-05-28 06:02:00,56.8,52.0,30.30,NNE,22,4.0,7.0,84,0.00,,,0.00,meteohub,2013-05-28 10:02:00,
2013-05-28 06:07:00,57.2,52.2,30.30,NW,315,3.0,5.0,83,0.00,,,0.00,meteohub,2013-05-28 10:07:00,
2013-05-28 06:12:00,58.1,52.9,30.29,East,90,4.0,4.0,83,0.00,,,0.00,meteohub,2013-05-28 10:12:00,
2013-05-28 06:17:00,58.8,52.7,30.29,SE,135,4.0,4.0,80,0.00,,,0.00,meteohub,2013-05-28 10:17:00,
2013-05-28 06:22:00,59.4,52.2,30.28,ENE,68,5.0,8.0,77,0.00,,,0.00,meteohub,2013-05-28 10:22:00,
2013-05-28 06:27:00,59.5,51.6,30.28,ESE,112,5.0,8.0,75,0.00,,,0.00,meteohub,2013-05-28 10:27:00,
2013-05-28 06:32:00,59.7,51.1,30.28,ESE,112,6.0,11.0,73,0.00,,,0.00,meteohub,2013-05-28 10:32:00,
2013-05-28 06:37:00,59.9,50.9,30.28,SSE,158,13.0,13.0,72,0.00,,,0.00,meteohub,2013-05-28 10:37:00,
2013-05-28 06:42:00,60.1,50.7,30.28,SSE,158,6.0,13.0,71,0.00,,,0.00,meteohub,2013-05-28 10:42:00,
2013-05-28 06:47:00,60.3,50.4,30.28,ESE,112,4.0,13.0,70,0.00,,,0.00,meteohub,2013-05-28 10:47:00,
2013-05-28 06:52:00,60.4,50.5,30.27,ESE,112,3.0,13.0,70,0.00,,,0.00,meteohub,2013-05-28 10:52:00,
2013-05-28 06:57:00,60.4,50.2,30.27,ESE,112,4.0,6.0,69,0.00,,,0.00,meteohub,2013-05-28 10:57:00,
2013-05-28 07:02:00,60.3,50.0,30.28,SSE,158,4.0,6.0,69,0.00,,,0.00,meteohub,2013-05-28 11:02:00,
2013-05-28 07:07:00,60.1,49.8,30.28,North,-999,-999.0,6.0,69,0.00,,,0.00,meteohub,2013-05-28 11:07:00,
2013-05-28 07:12:00,59.7,50.0,30.28,North,-999,-999.0,5.0,70,0.00,,,0.00,meteohub,2013-05-28 11:12:00,
2013-05-28 07:17:00,59.4,49.6,30.28,SSE,158,1.0,4.0,70,0.00,,,0.00,meteohub,2013-05-28 11:17:00,
2013-05-28 07:21:00,59.2,49.8,30.28,West,270,2.0,2.0,71,0.00,,,0.00,meteohub,2013-05-28 11:21:00,
2013-05-28 07:26:00,59.2,50.2,30.32,North,-999,-999.0,2.0,72,0.00,,,0.00,meteohub,2013-05-28 11:26:00,
2013-05-28 07:31:00,59.2,50.5,30.32,North,-999,-999.0,2.0,73,0.00,,,0.00,meteohub,2013-05-28 11:31:00,
2013-05-28 07:36:00,59.0,50.4,30.32,North,-999,-999.0,-999.0,73,0.00,,,0.00,meteohub,2013-05-28 11:36:00,
2013-05-28 07:42:00,59.4,50.7,30.32,North,-999,-999.0,-999.0,73,0.00,,,0.00,meteohub,2013-05-28 11:42:00,
2013-05-28 07:47:00,59.7,51.4,30.31,ESE,112,0.0,-999.0,74,0.00,,,0.00,meteohub,2013-05-28 11:47:00,
2013-05-28 07:52:00,59.7,51.4,30.31,North,-999,-999.0,2.0,74,0.00,,,0.00,meteohub,2013-05-28 11:52:00,
2013-05-28 07:57:00,59.9,51.6,30.31,SSE,158,0.0,2.0,74,0.00,,,0.00,meteohub,2013-05-28 11:57:00,
2013-05-28 08:02:00,60.1,51.4,30.31,North,-999,-999.0,0.0,73,0.00,,,0.00,meteohub,2013-05-28 12:02:00,
2013-05-28 08:07:00,60.3,52.0,30.31,WSW,248,0.0,0.0,74,0.00,,,0.00,meteohub,2013-05-28 12:07:00,
2013-05-28 08:12:00,60.6,52.3,30.31,NW,315,0.0,0.0,74,0.00,,,0.00,meteohub,2013-05-28 12:12:00,
2013-05-28 08:16:00,61.0,52.3,30.30,SSE,158,0.0,0.0,73,0.00,,,0.00,meteohub,2013-05-28 12:16:00,
2013-05-28 08:22:00,61.2,52.5,30.30,SSE,158,2.0,2.0,73,0.00,,,0.00,meteohub,2013-05-28 12:22:00,
2013-05-28 08:27:00,61.5,52.9,30.30,North,-999,-999.0,2.0,73,0.00,,,0.00,meteohub,2013-05-28 12:27:00,
2013-05-28 08:32:00,61.9,53.1,30.30,North,-999,-999.0,2.0,73,0.00,,,0.00,meteohub,2013-05-28 12:32:00,
2013-05-28 08:37:00,62.1,52.9,30.30,North,-999,-999.0,-999.0,72,0.00,,,0.00,meteohub,2013-05-28 12:37:00,
2013-05-28 08:42:00,62.6,53.1,30.29,North,-999,-999.0,-999.0,71,0.00,,,0.00,meteohub,2013-05-28 12:42:00,
2013-05-28 08:47:00,63.1,53.6,30.29,North,-999,-999.0,-999.0,71,0.00,,,0.00,meteohub,2013-05-28 12:47:00,
2013-05-28 08:52:00,63.1,53.2,30.29,North,-999,-999.0,-999.0,70,0.00,,,0.00,meteohub,2013-05-28 12:52:00,
2013-05-28 08:57:00,64.4,54.9,30.28,North,-999,-999.0,-999.0,71,0.00,,,0.00,meteohub,2013-05-28 12:57:00,
2013-05-28 09:02:00,65.5,55.4,30.27,ENE,68,2.0,-999.0,70,0.00,,,0.00,meteohub,2013-05-28 13:02:00,
2013-05-28 09:07:00,66.4,55.6,30.26,North,-999,-999.0,2.0,68,0.00,,,0.00,meteohub,2013-05-28 13:07:00,
2013-05-28 09:12:00,67.6,55.0,30.25,ESE,112,5.0,5.0,64,0.00,,,0.00,meteohub,2013-05-28 13:12:00,
2013-05-28 09:17:00,68.7,54.7,30.25,SSE,158,6.0,6.0,61,0.00,,,0.00,meteohub,2013-05-28 13:17:00,
2013-05-28 09:22:00,68.7,53.4,30.25,SE,135,5.0,6.0,58,0.00,,,0.00,meteohub,2013-05-28 13:22:00,
2013-05-28 09:27:00,67.6,52.9,30.29,North,-999,-999.0,6.0,59,0.00,,,0.00,meteohub,2013-05-28 13:27:00,
2013-05-28 09:32:00,67.8,53.4,30.29,North,-999,-999.0,5.0,60,0.00,,,0.00,meteohub,2013-05-28 13:32:00,
2013-05-28 09:37:00,68.0,53.1,30.28,North,-999,-999.0,-999.0,59,0.00,,,0.00,meteohub,2013-05-28 13:37:00,
2013-05-28 09:42:00,69.1,53.8,30.24,ESE,112,4.0,-999.0,58,0.00,,,0.00,meteohub,2013-05-28 13:42:00,
2013-05-28 09:47:00,69.3,53.4,30.24,SSE,158,6.0,6.0,57,0.00,,,0.00,meteohub,2013-05-28 13:47:00,
2013-05-28 09:52:00,68.4,52.0,30.25,North,-999,-999.0,6.0,56,0.00,,,0.00,meteohub,2013-05-28 13:52:00,
2013-05-28 09:57:00,67.1,51.4,30.29,North,-999,-999.0,6.0,57,0.00,,,0.00,meteohub,2013-05-28 13:57:00,
2013-05-28 10:02:00,66.6,51.3,30.30,North,-999,-999.0,-999.0,58,0.00,,,0.00,meteohub,2013-05-28 14:02:00,
2013-05-28 10:07:00,66.4,51.6,30.30,North,-999,-999.0,-999.0,59,0.00,,,0.00,meteohub,2013-05-28 14:07:00,
2013-05-28 10:12:00,66.4,52.2,30.30,North,-999,-999.0,-999.0,60,0.00,,,0.00,meteohub,2013-05-28 14:12:00,
2013-05-28 10:17:00,66.2,52.3,30.30,North,-999,-999.0,-999.0,61,0.00,,,0.00,meteohub,2013-05-28 14:17:00,
2013-05-28 10:22:00,66.6,53.1,30.30,SE,135,3.0,-999.0,62,0.00,,,0.00,meteohub,2013-05-28 14:22:00,
2013-05-28 10:27:00,67.8,54.9,30.29,SSE,158,5.0,5.0,63,0.00,,,0.00,meteohub,2013-05-28 14:27:00,
2013-05-28 10:32:00,69.1,55.6,30.28,SSE,158,5.0,6.0,62,0.00,,,0.00,meteohub,2013-05-28 14:32:00,
2013-05-28 10:37:00,70.7,56.7,30.26,ESE,112,5.0,6.0,61,0.00,,,0.00,meteohub,2013-05-28 14:37:00,
2013-05-28 10:42:00,72.1,55.6,30.25,SE,135,5.0,7.0,56,0.00,,,0.00,meteohub,2013-05-28 14:42:00,
2013-05-28 10:47:00,72.5,54.3,30.25,SE,135,7.0,7.0,53,0.00,,,0.00,meteohub,2013-05-28 14:47:00,
2013-05-28 10:52:00,71.4,52.9,30.26,SSE,158,6.0,7.0,52,0.00,,,0.00,meteohub,2013-05-28 14:52:00,
2013-05-28 10:57:00,70.0,51.6,30.27,SSE,158,6.0,7.0,52,0.00,,,0.00,meteohub,2013-05-28 14:57:00,
2013-05-28 11:02:00,69.3,51.4,30.27,SSE,158,4.0,8.0,53,0.00,,,0.00,meteohub,2013-05-28 15:02:00,
2013-05-28 11:07:00,68.9,51.6,30.28,SE,135,4.0,8.0,54,0.00,,,0.00,meteohub,2013-05-28 15:07:00,
2013-05-28 11:12:00,69.4,53.1,30.27,SSE,158,6.0,8.0,56,0.00,,,0.00,meteohub,2013-05-28 15:12:00,
2013-05-28 11:17:00,70.5,54.5,30.27,SE,135,6.0,6.0,57,0.00,,,0.00,meteohub,2013-05-28 15:17:00,
2013-05-28 11:22:00,70.9,54.0,30.26,SSE,158,6.0,9.0,55,0.00,,,0.00,meteohub,2013-05-28 15:22:00,
2013-05-28 11:27:00,71.1,54.1,30.26,SSE,158,8.0,9.0,55,0.00,,,0.00,meteohub,2013-05-28 15:27:00,
2013-05-28 11:32:00,70.3,52.9,30.27,SSE,158,7.0,9.0,54,0.00,,,0.00,meteohub,2013-05-28 15:32:00,
2013-05-28 11:37:00,69.8,52.9,30.27,SSE,158,8.0,9.0,55,0.00,,,0.00,meteohub,2013-05-28 15:37:00,
2013-05-28 11:42:00,69.4,53.6,30.27,SSE,158,5.0,9.0,57,0.00,,,0.00,meteohub,2013-05-28 15:42:00,
2013-05-28 11:47:00,69.3,53.8,30.27,SSE,158,6.0,8.0,58,0.00,,,0.00,meteohub,2013-05-28 15:47:00,
2013-05-28 11:52:00,69.1,54.1,30.28,SSE,158,9.0,9.0,59,0.00,,,0.00,meteohub,2013-05-28 15:52:00,
2013-05-28 11:57:00,69.1,55.0,30.28,SE,135,6.0,9.0,61,0.00,,,0.00,meteohub,2013-05-28 15:57:00,
2013-05-28 12:02:00,70.9,57.7,30.26,SE,135,9.0,9.0,63,0.00,,,0.00,meteohub,2013-05-28 16:02:00,
2013-05-28 12:07:00,72.0,56.8,30.25,SE,135,7.0,9.0,59,0.00,,,0.00,meteohub,2013-05-28 16:07:00,
2013-05-28 12:12:00,72.9,56.7,30.25,SE,135,9.0,9.0,57,0.00,,,0.00,meteohub,2013-05-28 16:12:00,
2013-05-28 12:17:00,74.5,57.7,30.24,SE,135,8.0,9.0,56,0.00,,,0.00,meteohub,2013-05-28 16:17:00,
2013-05-28 12:22:00,74.7,55.9,30.24,SSE,158,10.0,10.0,52,0.00,,,0.00,meteohub,2013-05-28 16:22:00,
2013-05-28 12:27:00,75.6,56.7,30.23,SSE,158,6.0,10.0,52,0.00,,,0.00,meteohub,2013-05-28 16:27:00,
2013-05-28 12:32:00,75.9,54.9,30.22,ESE,112,12.0,12.0,48,0.00,,,0.00,meteohub,2013-05-28 16:32:00,
2013-05-28 12:37:00,76.6,56.1,30.22,SSE,158,10.0,12.0,49,0.00,,,0.00,meteohub,2013-05-28 16:37:00,
2013-05-28 12:42:00,77.0,55.2,30.22,SSE,158,10.0,12.0,47,0.00,,,0.00,meteohub,2013-05-28 16:42:00,
2013-05-28 12:47:00,76.1,54.5,30.22,SSE,158,10.0,12.0,47,0.00,,,0.00,meteohub,2013-05-28 16:47:00,
2013-05-28 12:52:00,76.8,55.6,30.22,SSE,158,9.0,11.0,48,0.00,,,0.00,meteohub,2013-05-28 16:52:00,
2013-05-28 12:57:00,77.7,55.9,30.21,SSE,158,13.0,13.0,47,0.00,,,0.00,meteohub,2013-05-28 16:57:00,
2013-05-28 13:02:00,76.6,54.3,30.22,SSE,158,11.0,13.0,46,0.00,,,0.00,meteohub,2013-05-28 17:02:00,
2013-05-28 13:07:00,76.5,54.7,30.22,SE,135,9.0,13.0,47,0.00,,,0.00,meteohub,2013-05-28 17:07:00,
2013-05-28 13:12:00,77.0,55.2,30.22,SSE,158,6.0,13.0,47,0.00,,,0.00,meteohub,2013-05-28 17:12:00,
2013-05-28 13:17:00,75.7,53.4,30.23,ESE,112,7.0,11.0,46,0.00,,,0.00,meteohub,2013-05-28 17:17:00,
2013-05-28 13:22:00,74.5,53.6,30.24,SSE,158,6.0,10.0,48,0.00,,,0.00,meteohub,2013-05-28 17:22:00,
2013-05-28 13:27:00,73.9,52.5,30.21,SE,135,9.0,10.0,47,0.00,,,0.00,meteohub,2013-05-28 17:27:00,
2013-05-28 13:32:00,72.3,51.6,30.22,North,-999,-999.0,11.0,48,0.00,,,0.00,meteohub,2013-05-28 17:32:00,
2013-05-28 13:37:00,71.2,51.6,30.23,SSE,158,6.0,11.0,50,0.00,,,0.00,meteohub,2013-05-28 17:37:00,
2013-05-28 13:42:00,70.3,51.4,30.23,SSE,158,6.0,6.0,51,0.00,,,0.00,meteohub,2013-05-28 17:42:00,
2013-05-28 13:47:00,69.8,51.4,30.24,SSE,158,8.0,9.0,52,0.00,,,0.00,meteohub,2013-05-28 17:47:00,
2013-05-28 13:52:00,69.8,52.9,30.24,SSE,158,6.0,9.0,55,0.00,,,0.00,meteohub,2013-05-28 17:52:00,
2013-05-28 13:57:00,69.4,52.5,30.24,North,-999,-999.0,10.0,55,0.00,,,0.00,meteohub,2013-05-28 17:57:00,
2013-05-28 14:02:00,68.9,52.5,30.25,SSE,158,6.0,10.0,56,0.00,,,0.00,meteohub,2013-05-28 18:02:00,
2013-05-28 14:07:00,68.5,53.2,30.25,SSE,158,6.0,7.0,58,0.00,,,0.00,meteohub,2013-05-28 18:07:00,
2013-05-28 14:12:00,68.4,53.1,30.25,North,-999,-999.0,6.0,58,0.00,,,0.00,meteohub,2013-05-28 18:12:00,
2013-05-28 14:17:00,68.4,53.4,30.25,SSE,158,8.0,8.0,59,0.00,,,0.00,meteohub,2013-05-28 18:17:00,
2013-05-28 14:22:00,68.7,54.3,30.25,SSE,158,10.0,10.0,60,0.00,,,0.00,meteohub,2013-05-28 18:22:00,
2013-05-28 14:27:00,73.2,59.0,30.21,North,-999,-999.0,10.0,61,0.00,,,0.00,meteohub,2013-05-28 18:27:00,
2013-05-28 14:32:00,72.9,53.6,30.22,SE,135,10.0,13.0,51,0.00,,,0.00,meteohub,2013-05-28 18:32:00,
2013-05-28 14:37:00,72.0,50.7,30.22,SE,135,4.0,13.0,47,0.00,,,0.00,meteohub,2013-05-28 18:37:00,
2013-05-28 14:42:00,71.2,49.5,30.23,SSE,158,8.0,13.0,46,0.00,,,0.00,meteohub,2013-05-28 18:42:00,
2013-05-28 14:47:00,70.9,48.6,30.23,SSE,158,10.0,10.0,45,0.00,,,0.00,meteohub,2013-05-28 18:47:00,
2013-05-28 14:52:00,70.7,50.0,30.23,SSE,158,4.0,10.0,48,0.00,,,0.00,meteohub,2013-05-28 18:52:00,
2013-05-28 14:57:00,70.0,48.9,30.24,SSE,158,6.0,13.0,47,0.00,,,0.00,meteohub,2013-05-28 18:57:00,
2013-05-28 15:02:00,70.3,50.4,30.23,SSE,158,6.0,17.0,49,0.00,,,0.00,meteohub,2013-05-28 19:02:00,
2013-05-28 15:07:00,70.0,49.5,30.24,SSW,202,10.0,17.0,48,0.00,,,0.00,meteohub,2013-05-28 19:07:00,
2013-05-28 15:12:00,70.7,50.0,30.23,ESE,112,11.0,13.0,48,0.00,,,0.00,meteohub,2013-05-28 19:12:00,
2013-05-28 15:17:00,71.1,50.4,30.23,ESE,112,11.0,11.0,48,0.00,,,0.00,meteohub,2013-05-28 19:17:00,
2013-05-28 15:22:00,71.2,50.5,30.23,ESE,112,8.0,11.0,48,0.00,,,0.00,meteohub,2013-05-28 19:22:00,
2013-05-28 15:27:00,70.3,48.0,30.23,SSE,158,6.0,11.0,45,0.00,,,0.00,meteohub,2013-05-28 19:27:00,
2013-05-28 15:32:00,70.5,48.7,30.23,SSE,158,6.0,13.0,46,0.00,,,0.00,meteohub,2013-05-28 19:32:00,
2013-05-28 15:37:00,71.2,49.5,30.23,SSE,158,10.0,13.0,46,0.00,,,0.00,meteohub,2013-05-28 19:37:00,
2013-05-28 15:42:00,70.5,48.7,30.20,SSE,158,6.0,13.0,46,0.00,,,0.00,meteohub,2013-05-28 19:42:00,
2013-05-28 15:47:00,69.8,48.7,30.20,SSE,158,13.0,13.0,47,0.00,,,0.00,meteohub,2013-05-28 19:47:00,
2013-05-28 15:52:00,69.6,49.1,30.20,SE,135,11.0,15.0,48,0.00,,,0.00,meteohub,2013-05-28 19:52:00,
2013-05-28 15:57:00,70.2,49.6,30.23,SSE,158,16.0,16.0,48,0.00,,,0.00,meteohub,2013-05-28 19:57:00,
2013-05-28 16:02:00,70.0,48.9,30.24,ESE,112,9.0,16.0,47,0.00,,,0.00,meteohub,2013-05-28 20:02:00,
2013-05-28 16:07:00,69.6,49.1,30.24,SSE,158,8.0,16.0,48,0.00,,,0.00,meteohub,2013-05-28 20:07:00,
2013-05-28 16:12:00,69.1,49.1,30.24,SSE,158,8.0,16.0,49,0.00,,,0.00,meteohub,2013-05-28 20:12:00,
2013-05-28 16:17:00,68.9,49.5,30.25,SSE,158,6.0,11.0,50,0.00,,,0.00,meteohub,2013-05-28 20:17:00,
2013-05-28 16:23:00,69.3,49.8,30.24,ESE,112,11.0,12.0,50,0.00,,,0.00,meteohub,2013-05-28 20:23:00,
2013-05-28 16:28:00,69.3,49.3,30.24,SE,135,9.0,15.0,49,0.00,,,0.00,meteohub,2013-05-28 20:28:00,
2013-05-28 16:33:00,69.4,49.5,30.24,SE,135,14.0,15.0,49,0.00,,,0.00,meteohub,2013-05-28 20:33:00,
2013-05-28 16:38:00,69.1,50.2,30.24,South,180,13.0,15.0,51,0.00,,,0.00,meteohub,2013-05-28 20:38:00,
2013-05-28 16:43:00,68.7,50.4,30.25,SSE,158,9.0,14.0,52,0.00,,,0.00,meteohub,2013-05-28 20:43:00,
2013-05-28 16:48:00,68.9,50.5,30.25,SSE,158,9.0,14.0,52,0.00,,,0.00,meteohub,2013-05-28 20:48:00,
2013-05-28 16:53:00,68.5,50.7,30.25,ESE,112,11.0,15.0,53,0.00,,,0.00,meteohub,2013-05-28 20:53:00,
2013-05-28 16:58:00,68.7,50.4,30.25,SSE,158,13.0,15.0,52,0.00,,,0.00,meteohub,2013-05-28 20:58:00,
2013-05-28 17:03:00,68.5,50.2,30.25,SSE,158,8.0,15.0,52,0.00,,,0.00,meteohub,2013-05-28 21:03:00,
2013-05-28 17:08:00,69.1,51.3,30.24,South,180,8.0,13.0,53,0.00,,,0.00,meteohub,2013-05-28 21:08:00,
2013-05-28 17:13:00,69.1,50.7,30.24,SE,135,11.0,13.0,52,0.00,,,0.00,meteohub,2013-05-28 21:13:00,
2013-05-28 17:18:00,69.1,50.7,30.24,SSE,158,7.0,13.0,52,0.00,,,0.00,meteohub,2013-05-28 21:18:00,
2013-05-28 17:23:00,68.7,49.8,30.25,South,180,8.0,13.0,51,0.00,,,0.00,meteohub,2013-05-28 21:23:00,
2013-05-28 17:28:00,68.5,50.7,30.25,SSE,158,6.0,16.0,53,0.00,,,0.00,meteohub,2013-05-28 21:28:00,
2013-05-28 17:33:00,68.5,50.2,30.25,SSE,158,11.0,16.0,52,0.00,,,0.00,meteohub,2013-05-28 21:33:00,
2013-05-28 17:38:00,68.7,50.9,30.21,SSE,158,13.0,16.0,53,0.00,,,0.00,meteohub,2013-05-28 21:38:00,
2013-05-28 17:43:00,68.5,50.7,30.21,ENE,68,8.0,13.0,53,0.00,,,0.00,meteohub,2013-05-28 21:43:00,
2013-05-28 17:48:00,68.7,50.9,30.21,SE,135,11.0,13.0,53,0.00,,,0.00,meteohub,2013-05-28 21:48:00,
2013-05-28 17:53:00,68.9,51.6,30.25,SSE,158,6.0,13.0,54,0.00,,,0.00,meteohub,2013-05-28 21:53:00,
2013-05-28 17:58:00,68.5,51.3,30.25,ESE,112,11.0,13.0,54,0.00,,,0.00,meteohub,2013-05-28 21:58:00,
2013-05-28 18:03:00,68.4,50.5,30.25,ESE,112,13.0,14.0,53,0.00,,,0.00,meteohub,2013-05-28 22:03:00,
2013-05-28 18:08:00,68.5,51.3,30.25,SSE,158,11.0,19.0,54,0.00,,,0.00,meteohub,2013-05-28 22:08:00,
2013-05-28 18:13:00,68.4,50.5,30.25,SSE,158,11.0,19.0,53,0.00,,,0.00,meteohub,2013-05-28 22:13:00,
2013-05-28 18:18:00,68.0,50.7,30.25,SSE,158,10.0,19.0,54,0.00,,,0.00,meteohub,2013-05-28 22:18:00,
2013-05-28 18:23:00,67.8,51.1,30.25,SSE,158,13.0,16.0,55,0.00,,,0.00,meteohub,2013-05-28 22:23:00,
2013-05-28 18:28:00,67.6,51.4,30.25,ESE,112,13.0,16.0,56,0.00,,,0.00,meteohub,2013-05-28 22:28:00,
2013-05-28 18:33:00,67.6,51.4,30.25,SE,135,16.0,16.0,56,0.00,,,0.00,meteohub,2013-05-28 22:33:00,
2013-05-28 18:38:00,67.6,51.4,30.25,SE,135,10.0,16.0,56,0.00,,,0.00,meteohub,2013-05-28 22:38:00,
2013-05-28 18:43:00,67.6,51.4,30.25,SE,135,11.0,16.0,56,0.00,,,0.00,meteohub,2013-05-28 22:43:00,
2013-05-28 18:48:00,67.5,51.6,30.25,South,180,12.0,16.0,57,0.00,,,0.00,meteohub,2013-05-28 22:48:00,
2013-05-28 18:53:00,67.1,51.8,30.26,SSE,158,9.0,15.0,58,0.00,,,0.00,meteohub,2013-05-28 22:53:00,
2013-05-28 18:58:00,67.1,51.8,30.26,ESE,112,6.0,15.0,58,0.00,,,0.00,meteohub,2013-05-28 22:58:00,
2013-05-28 19:03:00,66.9,52.2,30.26,SE,135,11.0,15.0,59,0.00,,,0.00,meteohub,2013-05-28 23:03:00,
2013-05-28 19:08:00,66.9,52.2,30.22,SE,135,10.0,11.0,59,0.00,,,0.00,meteohub,2013-05-28 23:08:00,
2013-05-28 19:14:00,66.9,52.2,30.22,SSE,158,9.0,13.0,59,0.00,,,0.00,meteohub,2013-05-28 23:14:00,
2013-05-28 19:19:00,66.7,52.0,30.23,SE,135,11.0,13.0,59,0.00,,,0.00,meteohub,2013-05-28 23:19:00,
2013-05-28 19:24:00,66.4,51.6,30.23,SSE,158,10.0,13.0,59,0.00,,,0.00,meteohub,2013-05-28 23:24:00,
2013-05-28 19:29:00,66.2,52.0,30.23,South,180,15.0,17.0,60,0.00,,,0.00,meteohub,2013-05-28 23:29:00,
2013-05-28 19:34:00,66.0,51.8,30.23,SE,135,8.0,17.0,60,0.00,,,0.00,meteohub,2013-05-28 23:34:00,
2013-05-28 19:39:00,65.7,51.8,30.24,SSE,158,9.0,17.0,61,0.00,,,0.00,meteohub,2013-05-28 23:39:00,
2013-05-28 19:44:00,65.5,52.2,30.24,SSE,158,11.0,15.0,62,0.00,,,0.00,meteohub,2013-05-28 23:44:00,
2013-05-28 19:49:00,65.1,51.8,30.24,SSE,158,6.0,13.0,62,0.00,,,0.00,meteohub,2013-05-28 23:49:00,
2013-05-28 19:54:00,64.9,52.0,30.27,SSE,158,8.0,11.0,63,0.00,,,0.00,meteohub,2013-05-28 23:54:00,
2013-05-28 19:59:00,64.8,52.3,30.27,SE,135,10.0,13.0,64,0.00,,,0.00,meteohub,2013-05-28 23:59:00,
2013-05-28 20:04:00,64.6,52.2,30.28,ESE,112,10.0,13.0,64,0.00,,,0.00,meteohub,2013-05-29 00:04:00,
2013-05-28 20:09:00,64.4,52.3,30.25,SSE,158,10.0,13.0,65,0.00,,,0.00,meteohub,2013-05-29 00:09:00,
2013-05-28 20:14:00,64.2,52.7,30.25,SSE,158,13.0,13.0,66,0.00,,,0.00,meteohub,2013-05-29 00:14:00,
2013-05-28 20:19:00,63.9,52.3,30.25,SSE,158,11.0,13.0,66,0.00,,,0.00,meteohub,2013-05-29 00:19:00,
2013-05-28 20:24:00,63.7,52.5,30.25,SSE,158,8.0,13.0,67,0.00,,,0.00,meteohub,2013-05-29 00:24:00,
2013-05-28 20:29:00,63.5,52.3,30.25,SSE,158,6.0,13.0,67,0.00,,,0.00,meteohub,2013-05-29 00:29:00,
2013-05-28 20:34:00,63.3,52.5,30.25,SSE,158,11.0,13.0,68,0.00,,,0.00,meteohub,2013-05-29 00:34:00,
2013-05-28 20:39:00,63.3,52.5,30.29,SSE,158,13.0,13.0,68,0.00,,,0.00,meteohub,2013-05-29 00:39:00,
2013-05-28 20:44:00,63.1,52.3,30.29,SSE,158,9.0,13.0,68,0.00,,,0.00,meteohub,2013-05-29 00:44:00,
2013-05-28 20:49:00,63.1,52.3,30.29,SSE,158,10.0,14.0,68,0.00,,,0.00,meteohub,2013-05-29 00:49:00,
2013-05-28 20:54:00,63.0,52.2,30.26,SSE,158,6.0,14.0,68,0.00,,,0.00,meteohub,2013-05-29 00:54:00,
2013-05-28 20:59:00,63.0,52.7,30.26,SSE,158,8.0,14.0,69,0.00,,,0.00,meteohub,2013-05-29 00:59:00,
2013-05-28 21:04:00,62.8,52.5,30.26,SE,135,8.0,13.0,69,0.00,,,0.00,meteohub,2013-05-29 01:04:00,
2013-05-28 21:09:00,62.8,52.9,30.26,SE,135,13.0,13.0,70,0.00,,,0.00,meteohub,2013-05-29 01:09:00,
2013-05-28 21:14:00,62.6,52.7,30.26,ESE,112,10.0,13.0,70,0.00,,,0.00,meteohub,2013-05-29 01:14:00,
2013-05-28 21:19:00,62.6,52.7,30.26,SSE,158,8.0,15.0,70,0.00,,,0.00,meteohub,2013-05-29 01:19:00,
2013-05-28 21:24:00,62.6,52.7,30.29,SSE,158,8.0,15.0,70,0.00,,,0.00,meteohub,2013-05-29 01:24:00,
2013-05-28 21:29:00,62.6,52.7,30.29,SE,135,9.0,15.0,70,0.00,,,0.00,meteohub,2013-05-29 01:29:00,
2013-05-28 21:34:00,62.6,52.7,30.29,SSE,158,8.0,13.0,70,0.00,,,0.00,meteohub,2013-05-29 01:34:00,
2013-05-28 21:39:00,62.4,52.9,30.29,SSE,158,11.0,12.0,71,0.00,,,0.00,meteohub,2013-05-29 01:39:00,
2013-05-28 21:44:00,62.4,52.9,30.29,SE,135,11.0,14.0,71,0.00,,,0.00,meteohub,2013-05-29 01:44:00,
2013-05-28 21:49:00,62.4,52.9,30.29,SSE,158,8.0,16.0,71,0.00,,,0.00,meteohub,2013-05-29 01:49:00,
2013-05-28 21:54:00,62.4,52.9,30.29,ESE,112,7.0,16.0,71,0.00,,,0.00,meteohub,2013-05-29 01:54:00,
2013-05-28 21:59:00,62.2,52.7,30.30,SSE,158,6.0,16.0,71,0.00,,,0.00,meteohub,2013-05-29 01:59:00,
2013-05-28 22:04:00,62.2,53.1,30.30,SE,135,8.0,13.0,72,0.00,,,0.00,meteohub,2013-05-29 02:04:00,
2013-05-28 22:09:00,62.2,53.1,30.30,SSE,158,8.0,16.0,72,0.00,,,0.00,meteohub,2013-05-29 02:09:00,
2013-05-28 22:14:00,62.2,53.4,30.30,SSE,158,13.0,16.0,73,0.00,,,0.00,meteohub,2013-05-29 02:14:00,
2013-05-28 22:19:00,62.2,53.4,30.30,SSE,158,8.0,16.0,73,0.00,,,0.00,meteohub,2013-05-29 02:19:00,
2013-05-28 22:24:00,62.2,53.4,30.30,SE,135,11.0,15.0,73,0.00,,,0.00,meteohub,2013-05-29 02:24:00,
2013-05-28 22:29:00,62.2,53.8,30.30,ESE,112,8.0,13.0,74,0.00,,,0.00,meteohub,2013-05-29 02:29:00,
2013-05-28 22:34:00,62.2,53.8,30.30,SSE,158,6.0,16.0,74,0.00,,,0.00,meteohub,2013-05-29 02:34:00,
2013-05-28 22:39:00,62.2,53.8,30.30,SSE,158,4.0,16.0,74,0.00,,,0.00,meteohub,2013-05-29 02:39:00,
2013-05-28 22:44:00,62.2,53.8,30.30,SSE,158,4.0,16.0,74,0.00,,,0.00,meteohub,2013-05-29 02:44:00,
2013-05-28 22:49:00,62.1,53.6,30.30,ESE,112,6.0,9.0,74,0.00,,,0.00,meteohub,2013-05-29 02:49:00,
2013-05-28 22:54:00,62.1,53.6,30.30,SSE,158,8.0,9.0,74,0.00,,,0.00,meteohub,2013-05-29 02:54:00,
2013-05-28 22:59:00,61.9,54.0,30.30,SSE,158,8.0,8.0,75,0.00,,,0.00,meteohub,2013-05-29 02:59:00,
2013-05-28 23:04:00,61.9,54.3,30.30,SE,135,8.0,12.0,76,0.00,,,0.00,meteohub,2013-05-29 03:04:00,
2013-05-28 23:09:00,61.9,54.3,30.30,ESE,112,8.0,12.0,76,0.00,,,0.00,meteohub,2013-05-29 03:09:00,
2013-05-28 23:14:00,61.9,54.7,30.30,SSE,158,6.0,12.0,77,0.00,,,0.00,meteohub,2013-05-29 03:14:00,
2013-05-28 23:19:00,61.7,54.5,30.30,SSE,158,10.0,12.0,77,0.00,,,0.00,meteohub,2013-05-29 03:19:00,
2013-05-28 23:24:00,61.7,54.5,30.30,ESE,112,8.0,12.0,77,0.00,,,0.00,meteohub,2013-05-29 03:24:00,
2013-05-28 23:29:00,61.7,54.9,30.30,ESE,112,9.0,15.0,78,0.00,,,0.00,meteohub,2013-05-29 03:29:00,
2013-05-28 23:34:00,61.7,54.9,30.30,SSE,158,6.0,15.0,78,0.00,,,0.00,meteohub,2013-05-29 03:34:00,
2013-05-28 23:39:00,61.7,54.9,30.30,SE,135,9.0,15.0,78,0.00,,,0.00,meteohub,2013-05-29 03:39:00,
2013-05-28 23:44:00,61.7,55.0,30.30,SE,135,8.0,13.0,79,0.00,,,0.00,meteohub,2013-05-29 03:44:00,
2013-05-28 23:49:00,61.7,55.4,30.30,SE,135,10.0,13.0,80,0.00,,,0.00,meteohub,2013-05-29 03:49:00,
2013-05-28 23:54:00,61.7,55.4,30.30,SE,135,8.0,13.0,80,0.00,,,0.00,meteohub,2013-05-29 03:54:00,
2013-05-28 23:59:00,61.9,55.6,30.30,SSE,158,10.0,15.0,80,0.00,,,0.00,meteohub,2013-05-29 03:59:00,